{"data":{"norad_id":65091,"intl_designator":"2025-167P","name":"STARLINK-34648","alt_names":[],"object_type":"PAYLOAD","status":"ACTIVE","operator":null,"country":"US","launch_date":"2025-08-04","launch_site_code":"AFETR","launch_vehicle":null,"mission":null,"orbit_class":"UNKNOWN","rcs_meters":null,"size_class":null,"mass_kg":null,"dimensions":null,"purposes":["comms"],"wikipedia_slug":null,"has_3d_model":false,"image_url":null,"decayed_at":null,"tle_current":{"epoch":"2026-05-25T01:07:25.065696Z","epoch_age_seconds":85152,"freshness":"FRESH","line1":"1 65091U 25167P   26145.04681789  .00028914  00000+0  67129-3 0  9994","line2":"2 65091  53.1585  29.6315 0000969  71.1628 288.9483 15.42163851 45204","mean_motion":15.42163851,"eccentricity":9.69e-5,"inclination_deg":53.1585,"raan_deg":29.6315,"arg_perigee_deg":71.1628,"mean_anomaly_deg":288.9483,"bstar":0.00067129,"rev_number":4520,"period_min":93.375292065512,"perigee_km":439.06365280739,"apogee_km":440.38495432802,"semimajor_km":6817.8613035677,"source":"CELESTRAK","updated_at":"2026-05-25T13:38:20.684861Z"}}}